Moses Lake, WA

12:33 AM PDT on April 20, 2018 (GMT -0700)
Grant County International

Weather History for KMWH - January, 2014

Change the Weather History Date:

Monday, January 13, 2014

  Actual Average Record
Temperature  
Mean Temperature 49 °F 30 °F  
Max Temperature 54 °F 36 °F 54 °F (2014)
Min Temperature 44 °F 23 °F -10 °F (2017)
Degree Days  
Heating Degree Days 16 36  
Month to date heating degree days 392 474  
Since 1 July heating degree days 3076 3061  
Cooling Degree Days 0 0  
Month to date cooling degree days 0 0  
Year to date cooling degree days 0 0  
Moisture  
Dew Point 35 °F    
Average Humidity 58    
Maximum Humidity 70    
Minimum Humidity 45    
Precipitation  
Precipitation 0.00 in 0.05 in 0.16 in (1980)
Month to date precipitation 0.04 0.65  
Year to date precipitation 0.04 0.65  
Sea Level Pressure  
Sea Level Pressure 30.26 in    
Wind  
Wind Speed 16 mph (SW)    
Max Wind Speed 31 mph    
Max Gust Speed 44 mph    
Visibility 8 miles    
Events      
T = Trace of Precipitation, MM = Missing Value Source: NWS Daily Summary

Daily Weather History Graph

Daily Weather History Graph

Search for Another Location

Airport or City:

Astronomy

Jan. 13, 2014 Rise Set
Actual Time 7:40 AM PST 4:32 PM PST
Civil Twilight 7:05 AM PST 5:06 PM PST
Nautical Twilight 6:27 AM PST 5:44 PM PST
Astronomical Twilight 5:51 AM PST 6:21 PM PST
Moon 2:52 PM PST (1/13) 5:32 AM PST (1/13)
Length of Visible Light 10h 00m
Length of Day
8h 51m
Waxing Gibbous, 95% of the Moon is Illuminated
Jan 13
Waxing Gibbous
Jan 15
Full
Jan 23
Last Quarter
Jan 30
New
Feb 6
First Quarter

Hourly Weather History & Observations

Time (PST) Temp. Windchill Dew Point Humidity Pressure Visibility Wind Dir Wind Speed Gust Speed Precip Events Conditions
12:52 AM 48.0 °F - 35.1 °F 61% 30.12 in 7.0 mi WSW 16.1 mph - N/A   Clear
1:08 AM 48.2 °F - 35.6 °F 62% 30.11 in 4.0 mi SW 13.8 mph 23.0 mph N/A   Haze
1:18 AM 48.2 °F - 35.6 °F 62% 30.11 in 4.0 mi SW 9.2 mph 19.6 mph N/A   Haze
1:31 AM 48.2 °F - 35.6 °F 62% 30.13 in 4.0 mi WSW 16.1 mph 24.2 mph N/A   Haze
1:52 AM 50.0 °F - 35.1 °F 57% 30.14 in 2.5 mi WSW 26.5 mph 35.7 mph N/A   Haze
2:04 AM 50.0 °F - 35.6 °F 58% 30.12 in 4.0 mi SW 20.7 mph 39.1 mph N/A   Haze
2:26 AM 48.2 °F - 35.6 °F 62% 30.14 in 10.0 mi WSW 20.7 mph 38.0 mph N/A   Scattered Clouds
2:52 AM 50.0 °F - 36.0 °F 59% 30.15 in 8.0 mi WSW 19.6 mph 32.2 mph N/A   Clear
3:52 AM 48.9 °F - 36.0 °F 61% 30.16 in 10.0 mi SW 19.6 mph 28.8 mph N/A   Clear
4:52 AM 48.9 °F - 36.0 °F 61% 30.15 in 10.0 mi SW 24.2 mph 31.1 mph N/A   Clear
5:52 AM 48.0 °F - 35.1 °F 61% 30.14 in 10.0 mi SSW 19.6 mph 31.1 mph N/A   Clear
6:52 AM 48.0 °F - 34.0 °F 58% 30.16 in 10.0 mi South 21.9 mph 31.1 mph N/A   Clear
7:52 AM 48.9 °F - 33.1 °F 54% 30.17 in 10.0 mi South 25.3 mph 39.1 mph N/A   Scattered Clouds
8:52 AM 48.9 °F - 33.1 °F 54% 30.23 in 4.0 mi SSW 10.4 mph 23.0 mph N/A   Haze
8:59 AM 48.2 °F - 33.8 °F 58% 30.22 in 3.0 mi SSW 12.7 mph - N/A   Haze
9:09 AM 48.2 °F - 33.8 °F 58% 30.22 in 5.0 mi WSW 17.3 mph 24.2 mph N/A   Haze
9:52 AM 50.0 °F - 34.0 °F 54% 30.27 in 9.0 mi SW 12.7 mph - N/A   Clear
10:52 AM 51.1 °F - 35.1 °F 54% 30.30 in 10.0 mi WSW 10.4 mph 21.9 mph N/A   Clear
11:52 AM 53.1 °F - 35.1 °F 50% 30.30 in 10.0 mi WSW 13.8 mph - N/A   Clear
12:52 PM 54.0 °F - 36.0 °F 51% 30.30 in 9.0 mi WSW 15.0 mph 24.2 mph N/A   Clear
1:52 PM 54.0 °F - 36.0 °F 51% 30.30 in 9.0 mi WSW 17.3 mph - N/A   Clear
2:52 PM 54.0 °F - 37.0 °F 53% 30.32 in 4.0 mi WSW 21.9 mph 31.1 mph N/A   Haze
3:52 PM 52.0 °F - 36.0 °F 54% 30.33 in 9.0 mi WSW 19.6 mph 26.5 mph N/A   Clear
4:52 PM 50.0 °F - 36.0 °F 59% 30.36 in 10.0 mi WSW 15.0 mph - N/A   Clear
5:52 PM 48.0 °F - 36.0 °F 63% 30.35 in 10.0 mi SW 19.6 mph - N/A   Clear
6:52 PM 54.0 °F - 32.0 °F 43% 30.38 in 10.0 mi West 13.8 mph 26.5 mph N/A   Clear
7:52 PM 46.9 °F - 35.1 °F 63% 30.44 in 10.0 mi WSW 9.2 mph - N/A   Clear
8:52 PM 46.9 °F - 35.1 °F 63% 30.45 in 10.0 mi SW 8.1 mph - N/A   Clear
9:52 PM 46.0 °F 41.4 °F 36.0 °F 68% 30.49 in 10.0 mi SSW 9.2 mph - N/A   Clear
10:52 PM 45.0 °F 40.1 °F 36.0 °F 71% 30.51 in 10.0 mi SW 9.2 mph - N/A   Clear
11:52 PM 44.1 °F 38.6 °F 35.1 °F 71% 30.51 in 10.0 mi West 10.4 mph - N/A   Mostly Cloudy